Regional Weather Roundup
Issued by NWS Midland/Odessa, TX

Home | Current Version | Previous Version | Text Only | Print | Product List | Glossary On
Versions: 1 2 3 4 5 6 7 8 9 10 11 12 13 14 15 16 17 18 19 20 21 22 23 24 25 26 27 28 29 30 31 32 33 34 35 36 37 38 39 40 41 42 43 44 45 46 47 48 49 50
000
ASUS44 KMAF 301210
RWRMAF
MIDLAND AREA WEATHER ROUNDUP
NATIONAL WEATHER SERVICE MIDLAND TX
700 AM CDT SAT AUG 30 2014

...IN SOUTHWEST TEXAS AND SOUTHEAST NEW MEXICO...

CITY           SKY/WX    TMP DP  RH WIND       PRES   REMARKS
ALPINE         CLEAR     64  58  83 SW6       30.17S
ANDREWS        FAIR      68  62  81 S5        30.05S
ARTESIA        NOT AVBL
BIG SPRING     CLEAR     72  69  90 CALM      30.05R
CARLSBAD       CLEAR     70  61  73 CALM      30.03R
DRYDEN           N/A     77  66  68 NE5       29.97R
FORT STOCKTON  CLEAR     72  63  73 S12       30.02R
GUAD PASS      CLEAR     71  56  58 NE16      30.18R
HOBBS          CLEAR     66  63  88 VRB3      30.08
MARFA          CLEAR     57  50  77 CALM      30.16R
MIDLAND AIRPK  CLEAR     72  64  74 S3        30.04R
MIDLAND INTL   CLEAR     71  63  75 CALM      30.03R
ODESSA         CLEAR     70  62  76 E3        30.05R
PECOS          PTCLDY    70  63  78 E7        29.99S
PRESIDIO       FAIR      78  62  58 N8        30.00R
SEMINOLE       CLEAR     66  61  85 CALM      30.07R
SNYDER         CLEAR     68  66  93 CALM      30.03R
WINK           CLEAR     73  64  73 SE6       30.01R
$$
...OTHER STATIONS IN TEXAS...

CITY           SKY/WX    TMP DP  RH WIND       PRES   REMARKS
ABILENE        CLEAR     72  69  90 SE6       29.99R
AMARILLO       CLEAR     64  61  90 W6        30.10R
AUSTIN         CLOUDY    75  73  93 CALM      29.92S
BROWNSVILLE    HVY RAIN  76  75  97 CALM      29.88R
CORPUS CHRISTI TSTM      79  75  87 E8G16     29.89R
DALLAS FTW     MOCLDY    76  71  85 S7        29.94S
DEL RIO        CLEAR     79  70  74 E8        29.92R
EL PASO        MOCLDY    73  51  46 N3        30.05R
HOUSTON INT    PTCLDY    75  73  94 CALM      29.90S
LUBBOCK        PTCLDY    62  61  96 CALM      30.07S FOG
SAN ANGELO     CLEAR     70  65  84 CALM      29.99R
SAN ANTONIO    PTCLDY    77  74  90 CALM      29.93R
WACO           CLEAR     73  71  93 S5        29.94R
WICHITA FALLS  NOT AVBL
$$
...OTHER LOCATIONS IN NEW MEXICO...

CITY           SKY/WX    TMP DP  RH WIND       PRES   REMARKS
ALAMAGORDO     PTCLDY    63  48  59 E3        30.10R
ALBUQUERQUE    CLEAR     63  43  48 N7        30.16R
CANNON AFB     PTCLDY    66  65  98 NW5       30.13R
CLOVIS           N/A     63  59  88 W10       30.15R
HOLLOMAN AFB   MOCLDY    65  49  55 CALM      30.08R
ROSWELL        CLEAR     68  56  65 CALM      30.07S
RUIDOSO        CLEAR     59  45  58 CALM      30.31R
SANTA FE       CLEAR     54  42  64 CALM      30.22R
TRUTH OR CONSE CLOUDY    67  49  52 NW5       30.11R
TUCUMCARI      CLEAR     62  49  62 CALM      30.10R
$$


USA.gov is the U.S. government's official web portal to all federal, state and local government web resources and services.